CZ-6A DEB, 55201

Orbit data source: Space-Track

CZ-6A DEB, 55201 is space debris in SSO originally from a launch on Fri, 11 Nov 2022 UTC launched from the Taiyaun Space Center, China (TSC). Debris objects in space refer to the collection of defunct objects orbiting the Earth. Examples of debris include non-operational satellites, rocket bodies, and fragments generated from explosions, collisions, or faulty payload assembly.

Loading next visibility...
Identifier
55201, 2022-151VS
Orbit
SSO
Country
Flag of CNCN / PRC
Related business
Manufacturer
SAST
Mission
Spacecraft
Bus & Motor
Unknown
Mass
Unknown
Launch date (UTC)
2022-11-11 (4 years ago)
Launch vehicle
Unknown
Launch site
Taiyaun Space Center, China (TSC)
Object type
Payload
Rocket body
Debris
Shape & HBR
Unknown shape, 0.1 m
Radar Cross Section
Medium (>0.1 m² and <1 m²)

Expand to show TLE details & history
Last TLE update: 3 days ago

TLE from 3 days ago
0 CZ-6A DEB
1 55201U 22151VS  26170.77749104  .00033382  00000-0  26830-2 0  9999
2 55201  98.6298 259.8184 0048500 204.5264 155.3649 14.99002716186821
Epoch: 2026-06-19T18:39Z
TLE epoch observation values (Epoch: 2026-06-19T18:39:35.225Z)
Latitude
-0.00004°
Longitude
71.92004°
Altitude
603.667 km
Speed
7.541 km/s
True Right ascension
17h 19m 16s
True Declination
0° 00' 00"
Sunlit
Object was in full shadow at epoch
Visualization orbit readout
Latitude
Unknown
Longitude
Unknown
Altitude
Unknown
Speed
Unknown
Apparent Right ascension
Unknown
Apparent Declination
Unknown
Sunlit
N/A
Visualization observer readout
Local Sidereal Time
21:36:31
Azimuth
Unknown
Elevation
Unknown
Doppler factor
Unknown
Orbital elements
Apogee altitude
600.71 km
Perigee altitude
533.342 km
Semi-major axis
6,945.163 km
Eccentricity
0.00485
Inclination
98.6298°
RAAN
259.8184°
Arg. of periapsis
204.5264°
True anomaly
155.59529°
Mean anomaly
155.3649°
Eccentric anomaly
155.48022°
Mean motion
3.7499 °/min
Orbital period
96 mins
BSTAR
0.002683
Loading maneuver chart data...
Computing Atmospheric mass density...
Loading historical data...
Loading historical data...
Loading historical data...
Loading historical data...
Loading historical data...
Loading historical data...
Loading historical data...

Documentation

Showing up to 5 results
|